Regional Weather Roundup
Issued by NWS

Home | Current Version | Previous Version | Graphics & Text | Print | Product List | Glossary On
Versions: 1 2 3 4 5 6 7 8 9 10 11 12 13 14 15 16 17 18 19 20 21 22 23 24 25 26 27 28 29 30 31 32 33 34 35 36 37 38 39 40 41 42 43 44 45 46 47 48 49 50
000
ASUS43 KIND 191100
RWRIN

WEATHER ROUNDUP FOR INDIANA
NATIONAL WEATHER SERVICE INDIANAPOLIS IN
700 AM EDT SAT AUG 19 2017

NOTE: "FAIR" INDICATES FEW OR NO CLOUDS BELOW 12,000 FEET WITH NO
SIGNIFICANT WEATHER AND/OR OBSTRUCTIONS TO VISIBILITY.

* - STATION DOES NOT REPORT WEATHER SUCH AS PRECIPITATION OR FOG.

+ - STATION NOT QUALITY CONTROLLED BY THE NATIONAL WEATHER SERVICE.
    USE DATA WITH CAUTION...ESPECIALLY DEWPOINT AND RELATIVE
    HUMIDITY OBSERVATIONS.

INZ001>003-010>013-019-020-191200-
NORTHWEST INDIANA

CITY           SKY/WX    TMP DP  RH WIND       PRES   REMARKS
GARY /AIRPORT/ PTCLDY    66  61  82 CALM      29.92R
MICHIGAN CITY+ PTCLDY    63  63 100 CALM      29.92R
MONTICELLO +   CLEAR     63  61  95 CALM      29.92R
RENSSELAER +   FOG       61  57  88 CALM      29.93R VSB 1

$$

LMZ046-743>745-191200-
SOUTHERN LAKE MICHIGAN

STATION/POSITION TIME  TEMP    WIND        PRES    WAVE
                       AIR SEA DIR/SP/G            HT
                 (UTC) (F)     (DEG/KT/KT) (MB)    (FT)
BURNS HARBOR     1040   70     350/  6/ 10 1013.2R
MICHIGAN CITY    1030   70     340/ 10/ 11   N/A
5NW MICH CITY    1050   70 74  350/  6/ 10   N/A     3

$$

INZ004-005-014>016-021>024-191200-
NORTH CENTRAL INDIANA

CITY           SKY/WX    TMP DP  RH WIND       PRES   REMARKS
GOSHEN         FOG       62  60  93 S5        29.90S VSB 1
PERU/GRISSOM   CLEAR     64  64 100 SW7       29.90F
SOUTH BEND     CLEAR     61  61 100 W7        29.92R

$$

INZ006>009-017-018-025>027-191200-
NORTHEAST INDIANA

CITY           SKY/WX    TMP DP  RH WIND       PRES   REMARKS
FORT WAYNE     MOCLDY    63  61  93 SW3       29.91R
KENDALLVILLE + PTCLDY    62  62 100 S5        29.91S FOG

$$

INZ028-029-035-036-043>045-051>053-191200-
WEST CENTRAL INDIANA

CITY           SKY/WX    TMP DP  RH WIND       PRES   REMARKS
LAFAYETTE      CLEAR     61  60  97 CALM      29.92S
TERRE HAUTE    MOCLDY    66  64  93 CALM      29.92R

$$

INZ030>032-037>040-046>048-054>057-064-065-191200-
CENTRAL INDIANA

CITY           SKY/WX    TMP DP  RH WIND       PRES   REMARKS
COLUMBUS       MOCLDY    68  66  94 CALM      29.94
GREENWOOD *+   CLOUDY    65  62  92 CALM      29.94R
INDIANAPOLIS   CLOUDY    68  65  90 NW5       29.93R
-EAGLE CREEK   PTCLDY    67  63  87 CALM      29.93R
KOKOMO +       MOCLDY    64  62  93 SW5       29.93
MT COMFORT *+  PTCLDY    64  64 100 NE5       29.94F
SHELBYVILLE    PTCLDY    65  61  87 CALM      29.93R

$$

INZ033-034-041-042-049-050-058-059-191200-
EAST CENTRAL INDIANA

CITY           SKY/WX    TMP DP  RH WIND       PRES   REMARKS
MUNCIE         CLOUDY    70  61  73 W6        29.93S
RICHMOND +     PTCLDY    64  64 100 W5        29.97R

$$

INZ060-061-067>069-081>083-085>088-191200-
SOUTHWEST INDIANA

CITY           SKY/WX    TMP DP  RH WIND       PRES   REMARKS
EVANSVILLE     CLEAR     70  65  84 CALM      29.94S
HUNTINGBURG +  MOCLDY    69  66  90 MISG      29.95S

$$

INZ062-063-066-070>080-084-089>092-191200-
SOUTH CENTRAL AND SOUTHEAST INDIANA

CITY           SKY/WX    TMP DP  RH WIND       PRES   REMARKS
BLOOMINGTON    CLOUDY    67  63  87 S3        29.94R
MADISON *+     CLOUDY    68  64  88 CALM      29.98S
SEYMOUR +      CLOUDY    68  66  94 E3        29.94

$$





USA.gov is the U.S. government's official web portal to all federal, state and local government web resources and services.